When you browse on this site, cookies collect data to enhance your experience and personalize the content and advertising you see.
Visit our Privacy Policy to learn more. By continuing to use the site, you agree to this use of cookies and data.
  • In United Kingdom
  • List of Countries
  • For 7 days
  • Water Temperature
  • Satellite Maps
  • Weather Map
  • Weather Widgets
  • user-avatar
    Login

    Hourly Weather Phin

    Today, 26 April, Friday

    Time Temperature Precipitation Wind Pressure Humidity
    00:00 +30°C° 0 mm 1 mps 732 mmHg 64%
    01:00 +29°C° 0 mm 1 mps 732 mmHg 66%
    02:00 +29°C° 0.2 mm 1 mps 732 mmHg 69%
    03:00 +26°C° 0.2 mm 0 mps 732 mmHg 72%
    04:00 +26°C° 0.2 mm 0 mps 732 mmHg 75%
    05:00 +26°C° 0.2 mm 0 mps 733 mmHg 72%
    06:00 +27°C° 0.2 mm 0 mps 733 mmHg 70%
    07:00 +28°C° 0 mm 0 mps 733 mmHg 76%
    08:00 +31°C° 0 mm 0 mps 734 mmHg 63%
    09:00 +36°C° 0 mm 1 mps 734 mmHg 50%
    10:00 +40°C° 0 mm 1 mps 734 mmHg 37%
    11:00 +41°C° 0 mm 1 mps 733 mmHg 34%
    12:00 +42°C° 0 mm 1 mps 733 mmHg 31%
    13:00 +44°C° 0 mm 1 mps 733 mmHg 28%
    14:00 +39°C° 0 mm 0 mps 732 mmHg 29%
    15:00 +38°C° 0 mm 0 mps 732 mmHg 30%
    16:00 +37°C° 0 mm 0 mps 731 mmHg 31%
    17:00 +36°C° 0 mm 0 mps 732 mmHg 35%
    18:00 +34°C° 0 mm 0 mps 732 mmHg 39%
    19:00 +34°C° 0 mm 1 mps 732 mmHg 43%
    20:00 +33°C° 0 mm 1 mps 732 mmHg 47%
    21:00 +32°C° 0 mm 1 mps 733 mmHg 52%
    22:00 +31°C° 0 mm 1 mps 733 mmHg 57%
    23:00 +31°C° 0 mm 1 mps 733 mmHg 60%

    Tomorrow, 27 April, Saturday

    Time Temperature Precipitation Wind Pressure Humidity
    00:00 +30°C° 0 mm 1 mps 733 mmHg 62%
    01:00 +30°C° 0 mm 1 mps 733 mmHg 65%
    02:00 +30°C° 0 mm 1 mps 733 mmHg 66%
    03:00 +29°C° 0 mm 1 mps 733 mmHg 67%
    04:00 +29°C° 0 mm 1 mps 733 mmHg 68%
    05:00 +29°C° 0.5 mm 1 mps 733 mmHg 70%
    06:00 +27°C° 0.5 mm 0 mps 734 mmHg 72%
    07:00 +27°C° 0.5 mm 0 mps 734 mmHg 74%
    08:00 +32°C° 0 mm 1 mps 734 mmHg 62%
    09:00 +35°C° 0 mm 1 mps 735 mmHg 51%
    10:00 +38°C° 0 mm 2 mps 735 mmHg 40%
    11:00 +38°C° 0 mm 2 mps 735 mmHg 39%
    12:00 +39°C° 0 mm 2 mps 734 mmHg 39%
    13:00 +39°C° 0 mm 2 mps 734 mmHg 39%
    14:00 +39°C° 0 mm 1 mps 733 mmHg 37%
    15:00 +40°C° 0 mm 1 mps 732 mmHg 36%
    16:00 +40°C° 0 mm 1 mps 732 mmHg 35%
    17:00 +37°C° 0 mm 1 mps 732 mmHg 40%
    18:00 +35°C° 0 mm 1 mps 732 mmHg 45%
    19:00 +33°C° 0 mm 1 mps 732 mmHg 51%
    20:00 +32°C° 0 mm 1 mps 733 mmHg 56%
    21:00 +31°C° 0 mm 1 mps 733 mmHg 61%
    22:00 +30°C° 0 mm 1 mps 734 mmHg 66%
    23:00 +29°C° 0.3 mm 1 mps 734 mmHg 72%

    Day after tomorrow, 28 April, Sunday

    Time Temperature Precipitation Wind Pressure Humidity
    00:00 +28°C° 0.3 mm 1 mps 734 mmHg 78%
    01:00 +27°C° 0.3 mm 1 mps 734 mmHg 85%
    02:00 +27°C° 0.1 mm 1 mps 734 mmHg 85%
    03:00 +27°C° 0.1 mm 1 mps 733 mmHg 86%
    04:00 +27°C° 0.1 mm 1 mps 733 mmHg 87%
    05:00 +27°C° 0 mm 1 mps 734 mmHg 84%
    06:00 +28°C° 0 mm 1 mps 734 mmHg 81%
    07:00 +28°C° 0 mm 1 mps 734 mmHg 78%
    08:00 +31°C° 0.1 mm 1 mps 735 mmHg 66%
    09:00 +35°C° 0.1 mm 2 mps 735 mmHg 54%
    10:00 +38°C° 0.1 mm 2 mps 736 mmHg 42%
    11:00 +39°C° 0 mm 2 mps 735 mmHg 39%
    12:00 +39°C° 0 mm 2 mps 735 mmHg 37%
    13:00 +40°C° 0 mm 2 mps 734 mmHg 34%
    14:00 +40°C° 0 mm 2 mps 733 mmHg 33%
    15:00 +40°C° 0 mm 2 mps 732 mmHg 32%
    16:00 +40°C° 0 mm 2 mps 732 mmHg 31%
    17:00 +39°C° 0 mm 1 mps 732 mmHg 36%
    18:00 +36°C° 0 mm 1 mps 732 mmHg 41%
    19:00 +34°C° 0 mm 1 mps 732 mmHg 46%
    20:00 +33°C° 0.1 mm 1 mps 733 mmHg 51%
    21:00 +32°C° 0.1 mm 1 mps 733 mmHg 56%
    22:00 +31°C° 0.1 mm 1 mps 734 mmHg 62%
    23:00 +30°C° 0.1 mm 1 mps 734 mmHg 65%

    29 April, Monday

    Time Temperature Precipitation Wind Pressure Humidity
    00:00 +29°C° 0.1 mm 1 mps 734 mmHg 69%
    01:00 +29°C° 0.1 mm 1 mps 733 mmHg 73%
    02:00 +28°C° 0.1 mm 1 mps 733 mmHg 75%
    03:00 +26°C° 0.1 mm 0 mps 733 mmHg 77%
    04:00 +25°C° 0.1 mm 0 mps 733 mmHg 79%
    05:00 +26°C° 0 mm 0 mps 733 mmHg 75%
    06:00 +27°C° 0 mm 0 mps 734 mmHg 72%
    07:00 +28°C° 0 mm 0 mps 734 mmHg 69%
    08:00 +32°C° 0 mm 1 mps 735 mmHg 60%
    09:00 +35°C° 0 mm 2 mps 735 mmHg 51%
    10:00 +38°C° 0 mm 2 mps 735 mmHg 42%
    11:00 +38°C° 0 mm 2 mps 735 mmHg 40%
    12:00 +39°C° 0 mm 2 mps 734 mmHg 38%
    13:00 +40°C° 0 mm 2 mps 733 mmHg 36%
    14:00 +39°C° 0 mm 2 mps 733 mmHg 37%
    15:00 +39°C° 0 mm 2 mps 732 mmHg 37%
    16:00 +39°C° 0 mm 2 mps 731 mmHg 37%
    17:00 +37°C° 0 mm 1 mps 732 mmHg 42%
    18:00 +35°C° 0 mm 1 mps 732 mmHg 47%
    19:00 +31°C° 0 mm 0 mps 732 mmHg 52%
    20:00 +30°C° 0 mm 0 mps 733 mmHg 55%
    21:00 +31°C° 0 mm 1 mps 733 mmHg 57%
    22:00 +31°C° 0 mm 1 mps 733 mmHg 60%
    23:00 +30°C° 0 mm 1 mps 733 mmHg 64%

    30 April, Tuesday

    Time Temperature Precipitation Wind Pressure Humidity
    00:00 +29°C° 0 mm 1 mps 732 mmHg 67%
    01:00 +29°C° 0 mm 1 mps 732 mmHg 71%
    02:00 +28°C° 0.4 mm 1 mps 732 mmHg 75%
    03:00 +27°C° 0.4 mm 1 mps 732 mmHg 79%
    04:00 +27°C° 0.4 mm 1 mps 732 mmHg 83%
    05:00 +28°C° 0.1 mm 1 mps 733 mmHg 80%
    06:00 +28°C° 0.1 mm 1 mps 733 mmHg 77%
    07:00 +29°C° 0.1 mm 1 mps 734 mmHg 74%
    08:00 +32°C° 0 mm 2 mps 734 mmHg 63%
    09:00 +35°C° 0 mm 2 mps 734 mmHg 52%
    10:00 +38°C° 0 mm 3 mps 735 mmHg 41%
    11:00 +38°C° 0 mm 3 mps 734 mmHg 41%
    12:00 +38°C° 0 mm 3 mps 733 mmHg 41%
    13:00 +38°C° 0 mm 3 mps 732 mmHg 41%
    14:00 +39°C° 0 mm 2 mps 732 mmHg 40%
    15:00 +39°C° 0 mm 2 mps 731 mmHg 39%
    16:00 +39°C° 0 mm 2 mps 731 mmHg 38%
    17:00 +37°C° 0 mm 2 mps 731 mmHg 43%
    18:00 +35°C° 0 mm 1 mps 731 mmHg 48%
    19:00 +33°C° 0 mm 1 mps 731 mmHg 53%
    20:00 +32°C° 0 mm 1 mps 732 mmHg 55%
    21:00 +32°C° 0 mm 1 mps 732 mmHg 57%
    22:00 +31°C° 0 mm 1 mps 732 mmHg 59%
    23:00 +30°C° 0 mm 1 mps 732 mmHg 62%

    1 May, Wednesday

    Time Temperature Precipitation Wind Pressure Humidity
    00:00 +30°C° 0 mm 1 mps 732 mmHg 65%
    01:00 +29°C° 0 mm 1 mps 731 mmHg 68%
    02:00 +28°C° 0.2 mm 1 mps 731 mmHg 73%
    03:00 +28°C° 0.2 mm 1 mps 731 mmHg 77%
    04:00 +27°C° 0.2 mm 1 mps 731 mmHg 82%
    05:00 +28°C° 0.2 mm 1 mps 732 mmHg 80%
    06:00 +28°C° 0.2 mm 1 mps 732 mmHg 77%
    07:00 +29°C° 0.2 mm 1 mps 733 mmHg 74%
    08:00 +31°C° 0.4 mm 1 mps 733 mmHg 65%
    09:00 +35°C° 0.4 mm 2 mps 733 mmHg 56%
    10:00 +37°C° 0.4 mm 3 mps 734 mmHg 48%
    11:00 +38°C° 0.1 mm 3 mps 733 mmHg 45%
    12:00 +38°C° 0.1 mm 3 mps 732 mmHg 43%
    13:00 +39°C° 0.1 mm 3 mps 731 mmHg 41%
    14:00 +39°C° 0 mm 2 mps 731 mmHg 39%
    15:00 +40°C° 0 mm 2 mps 731 mmHg 37%
    16:00 +40°C° 0 mm 2 mps 730 mmHg 35%
    17:00 +37°C° 0 mm 1 mps 731 mmHg 40%
    18:00 +35°C° 0 mm 1 mps 731 mmHg 44%
    19:00 +33°C° 0 mm 1 mps 731 mmHg 49%
    20:00 +32°C° 0 mm 1 mps 732 mmHg 53%
    21:00 +31°C° 0 mm 1 mps 732 mmHg 57%
    22:00 +30°C° 0 mm 1 mps 732 mmHg 61%
    23:00 +30°C° 0.1 mm 1 mps 732 mmHg 66%
    Show more